Time,TemperatureF,DewpointF,PressureIn,WindDirection,WindDirectionDegrees,WindSpeedMPH,WindSpeedGustMPH,Humidity,HourlyPrecipIn,Conditions,Clouds,dailyrainin,SolarRadiationWatts/m^2,SoftwareType,DateUTC
2013-05-02 00:00:00,31.0,30.0,-100.00,North,359,6.0,14.0,96,0.00,,,0.16,0.000000,,2013-05-02 05:00:00,
2013-05-02 00:32:00,31.0,30.0,-100.00,North,359,6.0,14.0,96,0.00,,,0.16,0.000000,,2013-05-02 05:32:00,
2013-05-02 00:42:00,31.0,30.0,-100.00,North,359,6.0,14.0,96,0.00,,,0.16,0.000000,,2013-05-02 05:42:00,
2013-05-02 00:52:00,31.0,30.0,-100.00,North,359,6.0,14.0,96,0.00,,,0.16,0.000000,,2013-05-02 05:52:00,
2013-05-02 01:00:00,30.0,29.0,-100.00,North,354,7.0,14.0,95,0.00,,,0.16,0.000000,,2013-05-02 06:00:00,
2013-05-02 01:32:00,30.0,29.0,-100.00,North,354,7.0,14.0,95,0.00,,,0.16,0.000000,,2013-05-02 06:32:00,
2013-05-02 01:42:00,30.0,29.0,-100.00,North,354,7.0,14.0,95,0.00,,,0.16,0.000000,,2013-05-02 06:42:00,
2013-05-02 01:52:00,30.0,29.0,-100.00,North,354,7.0,14.0,95,0.00,,,0.16,0.000000,,2013-05-02 06:52:00,
2013-05-02 02:00:00,30.0,28.0,-100.00,North,352,6.0,12.0,94,0.00,,,0.16,0.000000,,2013-05-02 07:00:00,
2013-05-02 02:22:00,30.0,28.0,-100.00,North,352,6.0,12.0,94,0.00,,,0.16,0.000000,,2013-05-02 07:22:00,
2013-05-02 02:32:00,30.0,28.0,-100.00,North,352,6.0,12.0,94,0.00,,,0.16,0.000000,,2013-05-02 07:32:00,
2013-05-02 02:42:00,30.0,28.0,-100.00,North,352,6.0,12.0,94,0.00,,,0.16,0.000000,,2013-05-02 07:42:00,
2013-05-02 02:52:00,30.0,28.0,-100.00,North,352,6.0,12.0,94,0.00,,,0.16,0.000000,,2013-05-02 07:52:00,
2013-05-02 03:00:00,30.0,29.0,-100.00,NNW,348,6.0,11.0,95,0.00,,,0.16,0.000000,,2013-05-02 08:00:00,
2013-05-02 03:32:00,30.0,29.0,-100.00,NNW,348,6.0,11.0,95,0.00,,,0.16,0.000000,,2013-05-02 08:32:00,
2013-05-02 03:42:00,30.0,29.0,-100.00,NNW,348,6.0,11.0,95,0.00,,,0.16,0.000000,,2013-05-02 08:42:00,
2013-05-02 03:52:00,30.0,29.0,-100.00,NNW,348,6.0,11.0,95,0.00,,,0.16,0.000000,,2013-05-02 08:52:00,
2013-05-02 04:00:00,29.0,28.0,-100.00,North,353,6.0,11.0,95,0.00,,,0.16,0.000000,,2013-05-02 09:00:00,
2013-05-02 04:22:00,29.0,28.0,-100.00,North,353,6.0,11.0,95,0.00,,,0.16,0.000000,,2013-05-02 09:22:00,
2013-05-02 04:33:00,29.0,28.0,-100.00,North,353,6.0,11.0,95,0.00,,,0.16,0.000000,,2013-05-02 09:33:00,
2013-05-02 04:42:00,29.0,28.0,-100.00,North,353,6.0,11.0,95,0.00,,,0.16,0.000000,,2013-05-02 09:42:00,
2013-05-02 04:52:00,29.0,28.0,-100.00,North,353,6.0,11.0,95,0.00,,,0.16,0.000000,,2013-05-02 09:52:00,
2013-05-02 05:00:00,29.0,27.0,-100.00,NNW,343,7.0,16.0,94,0.00,,,0.16,0.000000,,2013-05-02 10:00:00,
2013-05-02 05:23:00,29.0,27.0,-100.00,NNW,343,7.0,16.0,94,0.00,,,0.16,0.000000,,2013-05-02 10:23:00,
2013-05-02 05:33:00,29.0,27.0,-100.00,NNW,343,7.0,16.0,94,0.00,,,0.16,0.000000,,2013-05-02 10:33:00,
2013-05-02 05:42:00,29.0,27.0,-100.00,NNW,343,7.0,16.0,94,0.00,,,0.16,0.000000,,2013-05-02 10:42:00,
2013-05-02 05:53:00,29.0,27.0,-100.00,NNW,343,7.0,16.0,94,0.00,,,0.16,0.000000,,2013-05-02 10:53:00,
2013-05-02 06:00:00,29.0,28.0,-100.00,NNW,343,6.0,14.0,95,0.00,,,0.16,0.000000,,2013-05-02 11:00:00,
2013-05-02 06:32:00,29.0,28.0,-100.00,NNW,343,6.0,14.0,95,0.00,,,0.16,0.000000,,2013-05-02 11:32:00,
2013-05-02 06:42:00,29.0,28.0,-100.00,NNW,343,6.0,14.0,95,0.00,,,0.16,0.000000,,2013-05-02 11:42:00,
2013-05-02 06:52:00,29.0,28.0,-100.00,NNW,343,6.0,14.0,95,0.00,,,0.16,0.000000,,2013-05-02 11:52:00,
2013-05-02 07:00:00,29.0,28.0,-100.00,NNW,344,6.0,11.0,95,0.00,,,0.09,5.000000,,2013-05-02 12:00:00,
2013-05-02 07:22:00,29.0,28.0,-100.00,NNW,344,6.0,11.0,95,0.00,,,0.09,5.000000,,2013-05-02 12:22:00,
2013-05-02 07:32:00,29.0,28.0,-100.00,NNW,344,6.0,11.0,95,0.00,,,0.09,5.000000,,2013-05-02 12:32:00,
2013-05-02 07:42:00,29.0,28.0,-100.00,NNW,344,6.0,11.0,95,0.00,,,0.09,5.000000,,2013-05-02 12:42:00,
2013-05-02 07:52:00,29.0,28.0,-100.00,NNW,344,6.0,11.0,95,0.00,,,0.09,5.000000,,2013-05-02 12:52:00,
2013-05-02 08:00:00,29.0,27.0,-100.00,North,10,7.0,12.0,94,0.00,,,0.01,18.000000,,2013-05-02 13:00:00,
2013-05-02 08:32:00,29.0,27.0,-100.00,North,10,7.0,12.0,94,0.00,,,0.01,18.000000,,2013-05-02 13:32:00,
2013-05-02 08:42:00,29.0,27.0,-100.00,North,10,7.0,12.0,94,0.00,,,0.01,18.000000,,2013-05-02 13:42:00,
2013-05-02 08:52:00,29.0,27.0,-100.00,North,10,7.0,12.0,94,0.00,,,0.01,18.000000,,2013-05-02 13:52:00,
2013-05-02 09:00:00,29.0,28.0,-100.00,North,358,8.0,15.0,95,0.00,,,0.01,28.000000,,2013-05-02 14:00:00,
2013-05-02 09:32:00,29.0,28.0,-100.00,North,358,8.0,15.0,95,0.00,,,0.01,28.000000,,2013-05-02 14:32:00,
2013-05-02 09:43:00,29.0,28.0,-100.00,North,358,8.0,15.0,95,0.00,,,0.01,28.000000,,2013-05-02 14:43:00,
2013-05-02 09:52:00,29.0,28.0,-100.00,North,358,8.0,15.0,95,0.00,,,0.01,28.000000,,2013-05-02 14:52:00,
2013-05-02 10:00:00,28.0,27.0,-100.00,North,2,7.0,12.0,95,0.00,,,0.01,35.000000,,2013-05-02 15:00:00,
2013-05-02 10:33:00,28.0,27.0,-100.00,North,2,7.0,12.0,95,0.00,,,0.01,35.000000,,2013-05-02 15:33:00,
2013-05-02 10:43:00,28.0,27.0,-100.00,North,2,7.0,12.0,95,0.00,,,0.01,35.000000,,2013-05-02 15:43:00,
2013-05-02 11:00:00,29.0,27.0,-100.00,North,1,8.0,16.0,94,0.00,,,0.01,74.000000,,2013-05-02 16:00:00,
2013-05-02 11:32:00,29.0,27.0,-100.00,North,1,8.0,16.0,94,0.00,,,0.01,74.000000,,2013-05-02 16:32:00,
2013-05-02 11:43:00,29.0,27.0,-100.00,North,1,8.0,16.0,94,0.00,,,0.01,74.000000,,2013-05-02 16:43:00,
2013-05-02 11:52:00,29.0,27.0,-100.00,North,1,8.0,16.0,94,0.00,,,0.01,74.000000,,2013-05-02 16:52:00,
2013-05-02 12:00:00,30.0,28.0,-100.00,North,10,5.0,16.0,94,0.00,,,0.01,120.000000,,2013-05-02 17:00:00,
2013-05-02 12:32:00,30.0,28.0,-100.00,North,10,5.0,16.0,94,0.00,,,0.01,120.000000,,2013-05-02 17:32:00,
2013-05-02 12:42:00,30.0,28.0,-100.00,North,10,5.0,16.0,94,0.00,,,0.01,120.000000,,2013-05-02 17:42:00,
2013-05-02 12:52:00,30.0,28.0,-100.00,North,10,5.0,16.0,94,0.00,,,0.01,120.000000,,2013-05-02 17:52:00,
2013-05-02 13:00:00,29.0,27.0,-100.00,North,357,8.0,19.0,93,0.00,,,0.01,206.000000,,2013-05-02 18:00:00,
2013-05-02 13:32:00,29.0,27.0,-100.00,North,357,8.0,19.0,93,0.00,,,0.01,206.000000,,2013-05-02 18:32:00,
2013-05-02 13:42:00,29.0,27.0,-100.00,North,357,8.0,19.0,93,0.00,,,0.01,206.000000,,2013-05-02 18:42:00,
2013-05-02 13:52:00,29.0,27.0,-100.00,North,357,8.0,19.0,93,0.00,,,0.01,206.000000,,2013-05-02 18:52:00,
2013-05-02 14:00:00,29.0,27.0,-100.00,North,350,9.0,18.0,92,0.00,,,0.01,232.000000,,2013-05-02 19:00:00,
2013-05-02 14:22:00,29.0,27.0,-100.00,North,350,9.0,18.0,92,0.00,,,0.01,232.000000,,2013-05-02 19:22:00,
2013-05-02 14:32:00,29.0,27.0,-100.00,North,350,9.0,18.0,92,0.00,,,0.01,232.000000,,2013-05-02 19:32:00,
2013-05-02 14:42:00,29.0,27.0,-100.00,North,350,9.0,18.0,92,0.00,,,0.01,232.000000,,2013-05-02 19:42:00,
2013-05-02 14:52:00,29.0,27.0,-100.00,North,350,9.0,18.0,92,0.00,,,0.01,232.000000,,2013-05-02 19:52:00,
2013-05-02 15:00:00,30.0,28.0,-100.00,North,6,8.0,17.0,92,0.00,,,0.01,267.000000,,2013-05-02 20:00:00,
2013-05-02 15:32:00,30.0,28.0,-100.00,North,6,8.0,17.0,92,0.00,,,0.01,267.000000,,2013-05-02 20:32:00,
2013-05-02 15:42:00,30.0,28.0,-100.00,North,6,8.0,17.0,92,0.00,,,0.01,267.000000,,2013-05-02 20:42:00,
2013-05-02 15:52:00,30.0,28.0,-100.00,North,6,8.0,17.0,92,0.00,,,0.01,267.000000,,2013-05-02 20:52:00,
2013-05-02 16:00:00,30.0,28.0,-100.00,North,358,6.0,16.0,94,0.00,,,0.00,183.000000,,2013-05-02 21:00:00,
2013-05-02 16:21:00,30.0,28.0,-100.00,North,358,6.0,16.0,94,0.00,,,0.00,183.000000,,2013-05-02 21:21:00,
2013-05-02 16:33:00,30.0,28.0,-100.00,North,358,6.0,16.0,94,0.00,,,0.00,183.000000,,2013-05-02 21:33:00,
2013-05-02 16:42:00,30.0,28.0,-100.00,North,358,6.0,16.0,94,0.00,,,0.00,183.000000,,2013-05-02 21:42:00,
2013-05-02 16:53:00,30.0,28.0,-100.00,North,358,6.0,16.0,94,0.00,,,0.00,183.000000,,2013-05-02 21:53:00,
2013-05-02 17:00:00,29.0,27.0,-100.00,North,353,8.0,16.0,92,0.00,,,0.00,207.000000,,2013-05-02 22:00:00,
2013-05-02 17:33:00,29.0,27.0,-100.00,North,353,8.0,16.0,92,0.00,,,0.00,207.000000,,2013-05-02 22:33:00,
2013-05-02 17:42:00,29.0,27.0,-100.00,North,353,8.0,16.0,92,0.00,,,0.00,207.000000,,2013-05-02 22:42:00,
2013-05-02 17:52:00,29.0,27.0,-100.00,North,353,8.0,16.0,92,0.00,,,0.00,207.000000,,2013-05-02 22:52:00,
2013-05-02 18:00:00,29.0,27.0,-100.00,North,3,6.0,16.0,93,0.00,,,0.00,194.000000,,2013-05-02 23:00:00,
2013-05-02 18:22:00,29.0,27.0,-100.00,North,3,6.0,16.0,93,0.00,,,0.00,194.000000,,2013-05-02 23:22:00,
2013-05-02 18:32:00,29.0,27.0,-100.00,North,3,6.0,16.0,93,0.00,,,0.00,194.000000,,2013-05-02 23:32:00,
2013-05-02 18:42:00,29.0,27.0,-100.00,North,3,6.0,16.0,93,0.00,,,0.00,194.000000,,2013-05-02 23:42:00,
2013-05-02 18:52:00,29.0,27.0,-100.00,North,3,6.0,16.0,93,0.00,,,0.00,194.000000,,2013-05-02 23:52:00,
2013-05-02 19:00:00,28.0,27.0,-100.00,North,3,5.0,14.0,95,0.00,,,0.00,68.000000,,2013-05-03 00:00:00,
2013-05-02 19:22:00,28.0,27.0,-100.00,North,3,5.0,14.0,95,0.00,,,0.00,68.000000,,2013-05-03 00:22:00,
2013-05-02 19:32:00,28.0,27.0,-100.00,North,3,5.0,14.0,95,0.00,,,0.00,68.000000,,2013-05-03 00:32:00,
2013-05-02 19:42:00,28.0,27.0,-100.00,North,3,5.0,14.0,95,0.00,,,0.00,68.000000,,2013-05-03 00:42:00,
2013-05-02 19:52:00,28.0,27.0,-100.00,North,3,5.0,14.0,95,0.00,,,0.00,68.000000,,2013-05-03 00:52:00,
2013-05-02 20:00:00,27.0,26.0,-100.00,North,9,5.0,14.0,95,0.00,,,0.00,22.000000,,2013-05-03 01:00:00,
2013-05-02 20:21:00,27.0,26.0,-100.00,North,9,5.0,14.0,95,0.00,,,0.00,22.000000,,2013-05-03 01:21:00,
2013-05-02 20:32:00,27.0,26.0,-100.00,North,9,5.0,14.0,95,0.00,,,0.00,22.000000,,2013-05-03 01:32:00,
2013-05-02 20:42:00,27.0,26.0,-100.00,North,9,5.0,14.0,95,0.00,,,0.00,22.000000,,2013-05-03 01:42:00,
2013-05-02 20:52:00,27.0,26.0,-100.00,North,9,5.0,14.0,95,0.00,,,0.00,22.000000,,2013-05-03 01:52:00,
2013-05-02 21:00:00,27.0,26.0,-100.00,North,2,7.0,13.0,95,0.00,,,0.00,1.000000,,2013-05-03 02:00:00,
2013-05-02 21:22:00,27.0,26.0,-100.00,North,2,7.0,13.0,95,0.00,,,0.00,1.000000,,2013-05-03 02:22:00,
2013-05-02 21:32:00,27.0,26.0,-100.00,North,2,7.0,13.0,95,0.00,,,0.00,1.000000,,2013-05-03 02:32:00,
2013-05-02 21:42:00,27.0,26.0,-100.00,North,2,7.0,13.0,95,0.00,,,0.00,1.000000,,2013-05-03 02:42:00,
2013-05-02 21:52:00,27.0,26.0,-100.00,North,2,7.0,13.0,95,0.00,,,0.00,1.000000,,2013-05-03 02:52:00,
2013-05-02 22:00:00,27.0,26.0,-100.00,North,359,6.0,12.0,95,0.00,,,0.00,0.000000,,2013-05-03 03:00:00,
2013-05-02 22:21:00,27.0,26.0,-100.00,North,359,6.0,12.0,95,0.00,,,0.00,0.000000,,2013-05-03 03:21:00,
2013-05-02 22:33:00,27.0,26.0,-100.00,North,359,6.0,12.0,95,0.00,,,0.00,0.000000,,2013-05-03 03:33:00,
2013-05-02 22:43:00,27.0,26.0,-100.00,North,359,6.0,12.0,95,0.00,,,0.00,0.000000,,2013-05-03 03:43:00,
2013-05-02 22:53:00,27.0,26.0,-100.00,North,359,6.0,12.0,95,0.00,,,0.00,0.000000,,2013-05-03 03:53:00,
2013-05-02 23:00:00,27.0,26.0,-100.00,North,7,7.0,14.0,95,0.00,,,0.00,0.000000,,2013-05-03 04:00:00,
2013-05-02 23:32:00,27.0,26.0,-100.00,North,7,7.0,14.0,95,0.00,,,0.00,0.000000,,2013-05-03 04:32:00,
2013-05-02 23:43:00,27.0,26.0,-100.00,North,7,7.0,14.0,95,0.00,,,0.00,0.000000,,2013-05-03 04:43:00,
2013-05-02 23:53:00,27.0,26.0,-100.00,North,7,7.0,14.0,95,0.00,,,0.00,0.000000,,2013-05-03 04:53:00,